Miscellaneous Local Product
Issued by NWS North Platte, NE

Home | Current Version | Previous Version | Graphics & Text | Print | Product List | Glossary On
Versions: 1 2 3 4 5 6 7 8 9 10 11 12 13 14 15 16 17 18 19 20 21 22 23 24 25 26 27 28 29 30 31 32 33 34 35 36 37 38 39 40 41 42 43 44 45 46 47 48 49 50
000
AXUS43 KLBF 281110
MISLBF


WESTERN AND NORTH CENTRAL NEBRASKA HOURLY WEATHER ROUNDUP
NATIONAL WEATHER SERVICE NORTH PLATTE NE
500 AM CST SAT FEB 28 2015

***STATIONS NOT REPORTING VARIABLES SUCH AS SKY/WEATHER OR
PRESSURE ARE PROVIDED BY THE NEBRASKA DEPARTMENT OF
ROADS...RAWS...AND APRS NETWORKS...AND ARE NOT UNDER
NATIONAL WEATHER SERVICE QUALITY CONTROL***

...OBSERVATIONS IN AND NEAR THE EASTERN PANHANDLE OF NEBRASKA...

CITY           SKY/WX    TMP DP  RH WIND       PRES   REMARKS
PINE RIDGE     CLEAR     11   4  73 S17G23    30.02F WCI  -6
CHADRON        CLEAR      7   2  80 SW8       30.03S WCI  -6
ALLIANCE       CLEAR      5   1  83 S6        30.00R WCI  -6
SIDNEY         CLEAR      4  -1  80 S5        29.98R WCI  -5
WHITECLAY        N/A     10   3  74 S9          N/A  WCI  -4
CRESCENT LAKE    N/A      6   2  82 S8          N/A  WCI  -7
LISCO            N/A     10   3  75 E7          N/A  WCI  -1
BIG SPRINGS      N/A     12   8  85 S12         N/A  WCI  -2
LEWELLEN         N/A      4   1  88 CALM        N/A
$$

...OBSERVATIONS IN NORTH CENTRAL NEBRASKA...

CITY           SKY/WX    TMP DP  RH WIND       PRES   REMARKS
VALENTINE      CLEAR     14   6  70 S10       30.13F WCI   1
THEDFORD       CLEAR     12   6  76 S8        30.14S WCI   1
AINSWORTH      CLEAR     10   5  80 SE9       30.16F WCI  -3
O`NEILL        CLEAR      9   4  81 S8        30.27S WCI  -4
ORD            CLOUDY    10   3  73 SE7       30.28S WCI  -1
BROKEN BOW     CLOUDY    14   6  70 S9        30.22S WCI   2
BROWNLEE         N/A     30  23  74 S8          N/A  WCI  23
SPRINGVIEW       N/A      9   2  74 S5G12       N/A  WCI   1
BREWSTER         N/A     11   7  87 S7          N/A  WCI   0
ROSE             N/A     14  12  92 E6          N/A  WCI   5
NEWPORT          N/A     15  11  85 S6          N/A  WCI   6
SARGENT          N/A     11   6  80 S5          N/A  WCI   3
COMSTOCK         N/A     15  10  78 S8          N/A  WCI   4
CHAMBERS         N/A      6 -16  35 S7          N/A  WCI  -6
EWING            N/A      8   3  80 S7          N/A  WCI  -3
$$

...OBSERVATIONS IN SOUTHWEST NEBRASKA AND FAR NORTHEAST COLORADO...

CITY           SKY/WX    TMP DP  RH WIND       PRES   REMARKS
WRAY           CLOUDY    14   9  80 S10       30.05F WCI   2
IMPERIAL         N/A     14   7  73 S14       30.10F WCI  -1
OGALLALA       PTCLDY    11   8  87 SE3       30.09S
NORTH PLATTE   CLOUDY    14   6  70 S10       30.17S WCI   1
MCCOOK         CLOUDY    16   8  71 S16       30.20S WCI   1
LEXINGTON      CLOUDY    15   8  73 S8        30.25R WCI   4
PAXTON           N/A     13   9  83 SE9         N/A  WCI   1
BRADY            N/A     13   6  72 CALM        N/A
GOTHENBURG       N/A     13   6  72 S8          N/A  WCI   2
CALLAWAY         N/A     12   7  79 S12         N/A  WCI  -2
$$

...NORTH PLATTE AREA...

CITY           SKY/WX    TMP DP  RH WIND       PRES   REMARKS
AIRPORT        CLOUDY    14   6  70 S10       30.17S WCI   1
DOWNTOWN         N/A     13   6  73 S8G15       N/A  WCI   2
$$

...SOME WEATHER OBSERVATIONS FROM AROUND THE REGION...

CITY           SKY/WX    TMP DP  RH WIND       PRES   REMARKS
DENVER         PTCLDY     7   1  76 SW5       29.86S WCI  -2
LARAMIE        PTCLDY    -2  -7  79 S7        29.76R WCI -15
CHEYENNE       PTCLDY    -1  -6  79 NW6       29.83R WCI -13
SCOTTSBLUFF    CLEAR      7   3  84 E7        29.99R WCI  -5
RAPID CITY     CLEAR      7   2  80 CALM      30.01R
PIERRE         CLEAR     12   3  67 S17       30.14F WCI  -5
WINNER         FAIR      12   1  61 S13       30.19S WCI  -3
SIOUX FALLS    FAIR       5  -2  72 S13       30.37F WCI -12
OMAHA          CLEAR      6   1  80 SE6       30.50S WCI  -4
GRAND ISLAND   CLEAR      7   4  87 S9        30.35S WCI  -7
KANSAS CITY    CLOUDY    15   8  73 E8        30.51R WCI   4
WICHITA        CLOUDY    16  11  80 SE7       30.41F WCI   6
HAYS           CLOUDY    14   3  62 SE8       30.31R WCI   3
LIBERAL        CLOUDY    14   9  79 SE14      30.19S WCI  -1
GOODLAND       LGT SNOW  10   7  87 S15       30.08F FOG     WCI  -7
$$



USA.gov is the U.S. government's official web portal to all federal, state and local government web resources and services.